Find Starlink 31913

NORAD ID: 59667 Int'l Des: 2024-084 Owner: SPXS Country: US Constellation: starlink operational
LEOCIRCULAR

現在のビュー

3D地球を読み込み中...

About Starlink 31913

Starlink 31913 (NORAD 59667) is a starlink constellation satellite (v2 mini) launched May 6, 2024 by SPXS of US. It operates in LEO, CIRCULAR orbit with a mass of 730.00 kg.

次回通過

Passes for default location (London). Set your location on the main map for personalized predictions.

高度履歴

Loading altitude history...

軌道要素

1 59667U 24084P 26236.13265531 -.00001344 00000-0 -39344-4 0 9997
2 59667 43.0022 172.5112 0000992 274.2050 85.8688 15.27561805130024
Epoch: Aug 24, 2026 • Age: 20 hours

現在のステータス

高度 482.3 km
遠地点 / 近地点 N/A
速度 7.63 km/s
衛星直下点 5.42°N, 154.04°W
打ち上げ日 May 6, 2024
運用期間 2.2 years
タイプ internet

技術仕様

分類 Payload
質量 730.00 kg
乾燥質量 700.00 kg
総質量 730.00 kg
長さ 0.30 m
直径 4.10 m
スパン 29.00 m
形状 Box + pan
製造者 SPXS
バスタイプ Starlink V2M
フェーズステータス In Orbit
所有者/国 SPXS/US

Most Searched